User: anonymous
Location: Unspecified
(0.0000°N, 0.0000°E)
Time: 18:26:10
(UTC+00:00)
Language:

Optus B1 - Orbit

View from above orbital plane
View from above orbital plane
View from above satellite
View from above satellite

Ground track
Ground track

The orbit data is extracted from the following two-line orbital elements,

1 22087U 92054A   14108.68527288 -.00000310  00000-0  00000+0 0  9151
2 22087 006.7832 056.2373 0012381 015.9279 160.3900 00.99208525 90627
Epoch (UTC): 18 April 2014 16:26:47
Eccentricity: 0.0012381
inclination: 6.7832°
perigee height: 36034 km
apogee height: 36139 km
right ascension of ascending node: 56.2373°
argument of perigee: 15.9279°
revolutions per day: 0.99208525
mean anomaly at epoch: 160.3900°
orbit number at epoch: 9062

The dashed part of the orbit path shows where the satellite is in the earth's shadow,  

DLR